Simultaneous Nadir Overpasses (SNOs) Predictions

Prediction of SNOs between AQUA and METOP-C Satellite Orbit:

Table of predicted SNOs for the next 14.0 days since TLE Epoch: 9/4/2020
Index Date (AQUA) Time (AQUA) Lat,Lon (AQUA) SZA (AQUA ) Date (METOP-C) Time (METOP-C) Lat,Lon (METOP-C) SZA (METOP-C ) Distance(km) Time Diff (sec)
1 09/07/2020 15:24:45 -73.74, 123.27 112.01 09/07/2020 15:24:16 -73.77, 123.27 111.98 3.20 29
2 09/07/2020 16:14:14 73.82, -69.26 68.08 09/07/2020 16:14:55 73.81, -69.30 68.07 1.62 41
3 09/10/2020 10:59:00 -73.75,-170.31 110.95 09/10/2020 10:58:37 -73.77,-170.34 110.93 1.90 23
4 09/10/2020 11:48:29 73.83, -2.85 69.16 09/10/2020 11:49:15 73.84, -2.81 69.16 1.76 46
5 09/13/2020 05:43:36 73.07, 89.91 69.40 09/13/2020 05:42:31 73.00, 87.02 69.41 94.09 65
6 09/13/2020 06:33:15 -73.76,-103.89 109.87 09/13/2020 06:32:58 -73.76,-103.95 109.87 1.81 17
7 09/13/2020 07:22:44 73.85, 63.54 70.24 09/13/2020 07:23:36 73.83, 63.55 70.21 2.95 52
8 09/16/2020 01:17:54 73.30, 155.87 70.72 09/16/2020 01:16:45 73.28, 154.05 70.75 58.39 69
9 09/16/2020 02:07:29 -73.78, -37.49 108.78 09/16/2020 02:07:17 -73.79, -37.45 108.76 2.13 12
10 09/16/2020 02:56:57 73.82, 130.04 71.29 09/16/2020 02:57:55 73.86, 130.04 71.32 3.38 58
11 09/18/2020 20:52:13 73.54,-138.19 72.06 09/18/2020 20:51:02 73.46,-139.14 72.00 31.51 71
